Home   Weather   Hamar   Past weeks

Flag for Norway Past Weather in Hamar, Norway — Yesterday and Last 2 Weeks

Now
19 °F

Cold.


Feels Like: 19 °F
Forecast: 13 / 26 °F
Wind: No wind

Location: Haugedalshogda

Current Time: Jan 17, 2017 at 2:05:15 pm

Latest Report: Jan 17, 2017 at 1:00 pm


Visibility: N/A

Pressure: 30.41 "Hg

Humidity: 88%

Dew Point: 16 °F

Location of HamarLocation

Past Weather in Hamar — Graph

°F

Hamar Temperature Yesterday

Maximum temperature yesterday: 8 °F (at 2:00 pm)
Minimum temperature yesterday: -11 °F (at 3:00 am)
Average temperature yesterday: -1 °F

High & Low Weather Summary for the Past Weeks

 TemperatureHumidityPressure
High37 °F (Jan 11, 7:00 am)95% (Jan 11, 7:00 pm)30.74 "Hg (Jan 11, 7:00 pm)
Low-12 °F (Jan 5, 8:00 am)64% (Jan 4, 10:00 am)28.61 "Hg (Jan 11, 5:00 pm)
Average12 °F86%29.84 "Hg
* Reported Jan 2 12:00 pm — Jan 17 12:00 pm, Hamar, Weather by CustomWeather, © 2017

Note: Actual official high and low records may vary slightly from our data, if they occured in-between our weather recording intervals... More about our weather records

Advertising

Hamar Weather History for the Previous 24 Hours

Scroll right to see more
 ConditionsComfort  
Time TempWeatherWind HumidityBarometerVisibility
12:00 pm
Tue, Jan 17
18 °FCold.1 mph88%30.41 "HgN/A
11:00 am18 °FCold.No wind89%30.44 "HgN/A
10:00 am16 °FCold.1 mph90%30.43 "HgN/A
9:00 am14 °FCold.No wind88%30.44 "HgN/A
8:00 am15 °FCold.No wind89%30.45 "HgN/A
7:00 am15 °FCold.1 mph89%30.44 "HgN/A
6:00 am15 °FCold.1 mph89%30.43 "HgN/A
5:00 am15 °FCold.1 mph89%30.43 "HgN/A
4:00 am14 °FCold.1 mph90%30.45 "HgN/A
3:00 am15 °FCold.1 mph90%30.45 "HgN/A
2:00 am15 °FCold.2 mph90%30.45 "HgN/A
1:00 am13 °FCold.3 mph89%30.46 "HgN/A
12:00 am14 °FCold.2 mph90%30.47 "HgN/A
11:00 pm
Mon, Jan 16
7 °FFrigid.1 mph86%30.49 "HgN/A
10:00 pm4 °FFrigid.1 mph85%30.49 "HgN/A
9:00 pm4 °FFrigid.1 mph84%30.48 "HgN/A
8:00 pm4 °FFrigid.1 mph86%30.48 "HgN/A
7:00 pm0 °FFrigid.1 mph83%30.49 "HgN/A
6:00 pm0 °FFrigid.1 mph84%30.49 "HgN/A
5:00 pm0 °FFrigid.1 mph85%30.49 "HgN/A
4:00 pm-2 °FFrigid.1 mph82%30.49 "HgN/A
3:00 pm6 °FFrigid.1 mph75%30.47 "HgN/A
2:00 pm8 °FFrigid.No wind69%30.47 "HgN/A
Weather by CustomWeather, © 2017

See weather overviewHow to use our weather pages